Simultaneous Nadir Overpasses (SNOs) Predictions

Prediction of SNOs between AQUA and NOAA-19 Satellite Orbit:

Table of predicted SNOs for the next 14.0 days since TLE Epoch: 6/29/2012
Index Date (AQUA) Time (AQUA) AQUA Lat,Lon Date (NOAA-19) Time (NOAA-19) NOAA-19 Lat,Lon Distance(km) Time Diff (sec)
1 06/30/2012 21:20:37 -46.00,-107.74 06/30/2012 21:19:37 -45.94,-107.52 18.84 60
2 06/30/2012 22:08:41 50.72, 61.80 06/30/2012 22:09:10 50.72, 61.81 0.57 29
3 07/03/2012 02:04:55 -46.06,-178.80 07/03/2012 02:04:16 -46.04,-178.64 12.61 39
4 07/03/2012 02:52:22 52.96, -8.27 07/03/2012 02:53:12 52.96, -8.27 0.21 50
5 07/05/2012 06:49:14 -46.04, 110.11 07/05/2012 06:48:57 -46.04, 110.19 6.26 17
6 07/05/2012 07:35:59 55.41, -78.13 07/05/2012 07:37:10 55.41, -78.12 0.97 71
7 07/07/2012 11:33:25 -46.49, 39.20 07/07/2012 11:33:30 -46.49, 39.21 0.81 5
8 07/07/2012 12:10:02 81.13, -45.24 07/07/2012 12:11:15 80.47, -47.08 80.86 73
9 07/09/2012 15:28:21 46.05, 160.33 07/09/2012 15:27:13 46.01, 160.62 23.39 68
10 07/09/2012 16:16:57 -49.23, -30.81 07/09/2012 16:17:23 -49.23, -30.80 0.44 26
11 07/11/2012 20:12:40 46.01, 89.23 07/11/2012 20:11:55 45.99, 89.44 16.74 45




NCC Satellite Simultaneous Nadir Overpasses (SNOs) Prediction Service
